Wahpeton, MN

7:45 PM CDT on July 20, 2017 (GMT -0500)
Stern

Weather History for KBWP - March, 2013

Change the Weather History Date:

Friday, March 22, 2013

  Actual Average (KFFM) Record (KFFM)
Temperature  
Mean Temperature 7 °F -  
Max Temperature 21 °F 39 °F 64 °F (2012)
Min Temperature -7 °F 20 °F -2 °F (1989)
Degree Days  
Heating Degree Days 58    
Moisture  
Dew Point 2 °F    
Average Humidity 80    
Maximum Humidity 86    
Minimum Humidity 68    
Precipitation  
Precipitation 0.00 in - - ()
Sea Level Pressure  
Sea Level Pressure 30.10 in    
Wind  
Wind Speed 3 mph (NW)    
Max Wind Speed 7 mph    
Max Gust Speed -    
Visibility 9 miles    
Events      
Averages and records for this station are not official NWS values.
T = Trace of Precipitation, MM = Missing Value Source: NWS Daily Summary

Daily Weather History Graph

Daily Weather History Graph

Search for Another Location

Airport or City:

Trip Planner

Search our weather history database for the weather conditions in past years. The results will help you decide how hot, cold, wet, or windy it might be!

Date:

Astronomy

Mar. 22, 2013 Rise Set
Actual Time 7:25 AM CDT 7:42 PM CDT
Civil Twilight 6:55 AM CDT 8:12 PM CDT
Nautical Twilight 6:19 AM CDT 8:47 PM CDT
Astronomical Twilight 5:43 AM CDT 9:24 PM CDT
Moon 2:57 PM CDT (3/22) 4:40 AM CDT (3/22)
Length of Visible Light 13h 17m
Length of Day
12h 17m
Waxing Gibbous, 77% of the Moon is Illuminated
Mar 22
Waxing Gibbous
Mar 27
Full
Apr 2
Last Quarter
Apr 10
New
Apr 18
First Quarter

Hourly Weather History & Observations

Time (CDT) Temp. Windchill Dew Point Humidity Pressure Visibility Wind Dir Wind Speed Gust Speed Precip Events Conditions
12:15 AM 1.4 °F -11.3 °F -4.0 °F 78% 30.12 in 10.0 mi NW 6.9 mph - N/A   Clear
12:35 AM -2.2 °F -12.5 °F -5.8 °F 85% 30.12 in 10.0 mi NW 4.6 mph - N/A   Clear
12:55 AM -0.4 °F -10.4 °F -4.0 °F 85% 30.12 in 10.0 mi NNW 4.6 mph - N/A   Clear
1:15 AM 3.2 °F -4.2 °F -0.4 °F 85% 30.12 in 10.0 mi NW 3.5 mph - N/A   Clear
1:35 AM -2.2 °F -14.2 °F -5.8 °F 85% 30.12 in 10.0 mi WNW 5.8 mph - N/A   Clear
1:55 AM -4.0 °F -14.6 °F -7.6 °F 85% 30.12 in 10.0 mi West 4.6 mph - N/A   Clear
2:15 AM -4.0 °F - -7.6 °F 85% 30.11 in 10.0 mi Calm Calm - N/A   Clear
2:35 AM -4.0 °F - -7.6 °F 85% 30.11 in 10.0 mi Calm Calm - N/A   Clear
2:55 AM -4.0 °F - -7.6 °F 85% 30.10 in 10.0 mi Calm Calm - N/A   Clear
3:15 AM -4.0 °F - -7.6 °F 85% 30.10 in 10.0 mi Calm Calm - N/A   Clear
3:35 AM -4.0 °F -12.4 °F -9.4 °F 78% 30.10 in 10.0 mi NW 3.5 mph - N/A   Clear
3:55 AM -5.8 °F -14.5 °F -9.4 °F 84% 30.09 in 10.0 mi NW 3.5 mph - N/A   Clear
4:15 AM -5.8 °F - -9.4 °F 84% 30.10 in 10.0 mi Calm Calm - N/A   Clear
4:35 AM -7.6 °F - -11.2 °F 84% 30.09 in 10.0 mi Calm Calm - N/A   Clear
4:55 AM -4.0 °F - -7.6 °F 85% 30.09 in 10.0 mi Calm Calm - N/A   Clear
5:15 AM -4.0 °F - -7.6 °F 85% 30.09 in 10.0 mi Calm Calm - N/A   Clear
5:35 AM -0.4 °F - -5.8 °F 78% 30.08 in 10.0 mi Calm Calm - N/A   Clear
6:15 AM -5.8 °F - -9.4 °F 84% 30.09 in 10.0 mi Calm Calm - N/A   Clear
6:35 AM -4.0 °F -12.4 °F -9.4 °F 78% 30.09 in 10.0 mi NNE 3.5 mph - N/A   Clear
6:55 AM -7.6 °F - -13.0 °F 77% 30.10 in 10.0 mi Calm Calm - N/A   Clear
7:15 AM -7.6 °F - -13.0 °F 77% 30.10 in 10.0 mi Calm Calm - N/A   Mostly Cloudy
7:35 AM -7.6 °F - -13.0 °F 77% 30.09 in 10.0 mi Calm Calm - N/A   Mostly Cloudy
7:55 AM -7.6 °F - -13.0 °F 77% 30.10 in 5.0 mi Calm Calm - N/A   Scattered Clouds
8:15 AM -7.6 °F -18.8 °F -13.0 °F 77% 30.11 in 5.0 mi WSW 4.6 mph - N/A   Mostly Cloudy
8:35 AM -7.6 °F - -13.0 °F 77% 30.10 in 4.0 mi Calm Calm - N/A   Overcast
8:55 AM -5.8 °F - -11.2 °F 77% 30.09 in 5.0 mi Calm Calm - N/A   Mostly Cloudy
9:15 AM -4.0 °F -12.4 °F -7.6 °F 85% 30.09 in 5.0 mi NNW 3.5 mph - N/A   Mostly Cloudy
9:55 AM -0.4 °F -8.3 °F -4.0 °F 85% 30.09 in 5.0 mi NW 3.5 mph - N/A   Clear
10:15 AM 1.4 °F - -4.0 °F 78% 30.08 in 7.0 mi Calm Calm - N/A   Clear
10:35 AM 3.2 °F - -0.4 °F 85% 30.08 in 7.0 mi Calm Calm - N/A   Clear
10:55 AM 5.0 °F - 1.4 °F 85% 30.08 in 7.0 mi Calm Calm - N/A   Clear
11:15 AM 5.0 °F -2.1 °F 1.4 °F 85% 30.08 in 10.0 mi WSW 3.5 mph - N/A   Clear
11:35 AM 5.0 °F -2.1 °F 1.4 °F 85% 30.08 in 10.0 mi West 3.5 mph - N/A   Clear
11:55 AM 6.8 °F - 3.2 °F 85% 30.07 in 10.0 mi Calm Calm - N/A   Clear
12:15 PM 8.6 °F - 3.2 °F 79% 30.08 in 10.0 mi Calm Calm - N/A   Clear
12:35 PM 10.4 °F 2.2 °F 5.0 °F 79% 30.09 in 10.0 mi WSW 4.6 mph - N/A   Clear
12:55 PM 10.4 °F - 5.0 °F 79% 30.09 in 10.0 mi Calm Calm - N/A   Clear
1:15 PM 12.2 °F - 6.8 °F 79% 30.09 in 10.0 mi Calm Calm - N/A   Clear
1:35 PM 14.0 °F 8.2 °F 8.6 °F 79% 30.09 in 10.0 mi West 3.5 mph - N/A   Clear
1:55 PM 14.0 °F - 8.6 °F 79% 30.09 in 10.0 mi Calm Calm - N/A   Clear
2:15 PM 14.0 °F 5.1 °F 8.6 °F 79% 30.09 in 10.0 mi WSW 5.8 mph - N/A   Clear
2:35 PM 15.8 °F 7.2 °F 10.4 °F 79% 30.09 in 10.0 mi West 5.8 mph - N/A   Clear
2:55 PM 15.8 °F 10.2 °F 10.4 °F 79% 30.08 in 10.0 mi WNW 3.5 mph - N/A   Clear
3:15 PM 17.6 °F 12.3 °F 10.4 °F 73% 30.08 in 10.0 mi West 3.5 mph - N/A   Clear
3:35 PM 17.6 °F 12.3 °F 10.4 °F 73% 30.07 in 10.0 mi WNW 3.5 mph - N/A   Clear
3:55 PM 17.6 °F 10.7 °F 10.4 °F 73% 30.07 in 10.0 mi West 4.6 mph - N/A   Clear
4:15 PM 17.6 °F 12.3 °F 10.4 °F 73% 30.07 in 10.0 mi WNW 3.5 mph - N/A   Clear
4:35 PM 17.6 °F 10.7 °F 12.2 °F 79% 30.08 in 10.0 mi NW 4.6 mph - N/A   Clear
4:55 PM 19.4 °F 11.5 °F 12.2 °F 74% 30.08 in 10.0 mi NW 5.8 mph - N/A   Clear
5:15 PM 19.4 °F - 12.2 °F 74% 30.08 in 10.0 mi Calm Calm - N/A   Clear
5:35 PM 21.2 °F - 12.2 °F 68% 30.08 in 10.0 mi Calm Calm - N/A   Clear
5:55 PM 19.4 °F 11.5 °F 12.2 °F 74% 30.09 in 10.0 mi NE 5.8 mph - N/A   Clear
6:15 PM 19.4 °F 11.5 °F 12.2 °F 74% 30.09 in 10.0 mi NNE 5.8 mph - N/A   Clear
6:35 PM 17.6 °F 10.7 °F 12.2 °F 79% 30.09 in 10.0 mi NNE 4.6 mph - N/A   Clear
6:55 PM 17.6 °F 10.7 °F 10.4 °F 73% 30.09 in 10.0 mi NNE 4.6 mph - N/A   Clear
7:15 PM 17.6 °F 10.7 °F 10.4 °F 73% 30.09 in 10.0 mi NNE 4.6 mph - N/A   Clear
7:35 PM 17.6 °F 10.7 °F 10.4 °F 73% 30.10 in 10.0 mi NNE 4.6 mph - N/A   Clear
7:55 PM 15.8 °F 10.2 °F 10.4 °F 79% 30.11 in 10.0 mi North 3.5 mph - N/A   Clear
8:15 PM 15.8 °F - 10.4 °F 79% 30.11 in 10.0 mi Calm Calm - N/A   Clear
8:35 PM 15.8 °F - 10.4 °F 79% 30.11 in 10.0 mi Calm Calm - N/A   Clear
8:55 PM 14.0 °F - 8.6 °F 79% 30.11 in 10.0 mi Calm Calm - N/A   Scattered Clouds
9:15 PM 14.0 °F - 8.6 °F 79% 30.12 in 10.0 mi Calm Calm - N/A   Scattered Clouds
9:35 PM 14.0 °F 8.2 °F 8.6 °F 79% 30.12 in 10.0 mi NNW 3.5 mph - N/A   Scattered Clouds
9:55 PM 14.0 °F 5.1 °F 8.6 °F 79% 30.13 in 10.0 mi WNW 5.8 mph - N/A   Mostly Cloudy
10:15 PM 12.2 °F 4.3 °F 8.6 °F 85% 30.13 in 10.0 mi NNW 4.6 mph - N/A   Overcast
10:35 PM 14.0 °F 6.5 °F 8.6 °F 79% 30.13 in 10.0 mi NNW 4.6 mph - N/A   Overcast
10:55 PM 14.0 °F 8.2 °F 10.4 °F 86% 30.13 in 10.0 mi NNW 3.5 mph - N/A   Overcast
11:15 PM 12.2 °F 4.3 °F 8.6 °F 85% 30.13 in 10.0 mi North 4.6 mph - N/A   Overcast
11:35 PM 12.2 °F 4.3 °F 8.6 °F 85% 30.12 in 10.0 mi North 4.6 mph - N/A   Scattered Clouds
11:55 PM 12.2 °F 4.3 °F 8.6 °F 85% 30.12 in 10.0 mi NNW 4.6 mph - N/A   Mostly Cloudy